Regional Weather Roundup
Issued by NWS

Home | Current Version | Previous Version | Text Only | Print | Product List | Glossary Off
Versions: 1 2 3 4 5 6 7 8 9 10 11 12 13 14 15 16 17 18 19 20 21 22 23 24 25 26 27 28 29 30 31 32 33 34 35 36 37 38 39 40 41 42 43 44 45 46 47 48 49 50

969
ASUS43 KOAX 271710
RWRNE

WEATHER ROUNDUP FOR NEBRASKA
NATIONAL WEATHER SERVICE OMAHA NE
1200 PM CDT SAT MAY 27 2017

NOTES: SATELLITE DATA IS BEING USED TO AUGMENT CLOUD COVER ABOVE
       12000 FEET.
       "FAIR" INDICATES FEW OR NO CLOUDS BELOW 12,000 FEET WITH NO
       SIGNIFICANT WEATHER AND/OR OBSTRUCTIONS TO VISIBILITY.

  * THESE STATIONS DO NOT REPORT WEATHER SUCH AS RAIN...SNOW OR FOG.

NEZ001>004-019>022-054>056-271800-
NEBRASKA PANHANDLE

CITY           SKY/WX    TMP DP  RH WIND       PRES   REMARKS
SCOTTSBLUFF    CLOUDY    57  42  57 NW12      30.08R
ALLIANCE       CLOUDY    56  45  66 NW13      30.05R
CHADRON        SUNNY     62  44  51 N12       30.05S
GORDON         PTSUNNY   60  47  64 N10G16    30.04R
KIMBALL        CLOUDY    55  43  64 N8G20     30.10S
SIDNEY         CLOUDY    54  46  74 N16       30.08R
$$

NEZ057>060-069>072-079>082-271800-
SOUTHWEST NEBRASKA

CITY           SKY/WX    TMP DP  RH WIND       PRES   REMARKS
NORTH PLATTE   LGT RAIN  59  54  83 N9        30.00S
IMPERIAL       CLOUDY    59  51  75 N14       30.02R
LEXINGTON      SUNNY     67  55  64 NE10      29.96R
MCCOOK         CLOUDY    67  53  61 N15       29.95R
OGALLALA       CLOUDY    57  53  87 N6        30.04R
$$

NEZ005>010-023>029-035>040-094-271800-
NORTH CENTRAL NEBRASKA

CITY           SKY/WX    TMP DP  RH WIND       PRES   REMARKS
VALENTINE      CLOUDY    56  49  77 CALM      30.02S
AINSWORTH      RAIN      53  50  88 N8        30.03R
BROKEN BOW     CLOUDY    64  51  62 N12       29.98R
O`NEILL        CLOUDY    58  50  74 N5        30.00R
ORD            PTSUNNY   67  51  56 NE9       29.95R
THEDFORD       CLOUDY    55  51  87 N9        30.04R
$$

NEZ041-046>049-061>064-073>077-083>087-271800-
SOUTH CENTRAL NEBRASKA

CITY           SKY/WX    TMP DP  RH WIND       PRES   REMARKS
GRAND ISLAND   SUNNY     70  50  49 NE17      29.92S
AURORA         SUNNY     69  49  48 NE14      29.91R
HASTINGS       SUNNY     66  53  63 NE10      29.92R
HEBRON         MOSUNNY   66  58  73 NE14G20   29.87S
HOLDREGE       SUNNY     65  52  61 N12       29.94R
KEARNEY *      SUNNY     66  48  52 N10G17    29.94S
YORK           MOSUNNY   68  54  60 E12       29.89F
$$

NEZ011>018-030>034-042>045-271800-
NORTHEAST NEBRASKA

CITY           SKY/WX    TMP DP  RH WIND       PRES   REMARKS
NORFOLK        CLOUDY    66  50  56 NE12      29.92S
ALBION         SUNNY     68  50  51 NE9       29.94F
BLAIR          PTSUNNY   64  54  69 NE16      29.88R
FREMONT        CLOUDY    69  49  49 NE14      29.90S
TEKAMAH        CLOUDY    70  51  51 NE14G21   29.90F
WAYNE          CLOUDY    67  49  51 NE15      29.94S
$$

NEZ050>053-065>068-078-088>093-271800-
SOUTHEAST NEBRASKA

CITY           SKY/WX    TMP DP  RH WIND       PRES   REMARKS
LINCOLN        CLOUDY    68  55  63 E9        29.90R
OMAHA EPPLEY   PTSUNNY   62  55  77 NE15G23   29.88S
BEATRICE       CLOUDY    65  58  77 NE8       29.86F
FALLS CITY     CLOUDY    61  59  93 N8G21     29.84F
NEBRASKA CITY  CLOUDY    60  60 100 E14       29.87F
PLATTSMOUTH    CLOUDY    62  58  84 NE5       29.90R
$$

NEZ044-045-051>053-067-271800-
OMAHA AREA

CITY           SKY/WX    TMP DP  RH WIND       PRES   REMARKS
OMAHA EPPLEY   PTSUNNY   62  55  77 NE15G23   29.88S
BLAIR          PTSUNNY   64  54  69 NE16      29.88R
FREMONT        CLOUDY    69  49  49 NE14      29.90S
MILLARD        CLOUDY    65  56  73 NE12      29.88R
OFFUTT AFB     PTSUNNY   62  56  81 NE12      29.88R
PLATTSMOUTH    CLOUDY    62  58  84 NE5       29.90R
WAHOO          FAIR      70  49  47 NE15      29.88S
$$




USA.gov is the U.S. government's official web portal to all federal, state and local government web resources and services.